Weather History for KAPY - December, 2013

Change the Weather History Date:

Wednesday, December 18, 2013

  Actual Average (KLRD) Record (KLRD)
Temperature  
Mean Temperature 56 °F 57 °F  
Max Temperature 75 °F 67 °F 89 °F (2012)
Min Temperature 38 °F 46 °F 24 °F (1996)
Degree Days  
Heating Degree Days 8 9  
Month to date heating degree days 146  
Since 1 July heating degree days 261  
Cooling Degree Days 0 1  
Month to date cooling degree days 22  
Year to date cooling degree days 4277  
Growing Degree Days 6 (Base 50)    
Moisture  
Dew Point 48 °F    
Average Humidity 71    
Maximum Humidity 97    
Minimum Humidity 35    
Precipitation  
Precipitation 0.00 in 0.03 in 0.44 in (1926)
Month to date precipitation 0.47  
Year to date precipitation 19.79  
Sea Level Pressure  
Sea Level Pressure 30.17 in    
Wind  
Wind Speed 4 mph (SE)    
Max Wind Speed 13 mph    
Max Gust Speed 22 mph    
Visibility 7 miles    
Events Fog    
T = Trace of Precipitation, MM = Missing Value Source: NWS Daily Summary

Daily Weather History Graph

Daily Weather History Graph

Search for Another Location

Airport or City:

Trip Planner

Search our weather history database for the weather conditions in past years. The results will help you decide how hot, cold, wet, or windy it might be!

Date:

Astronomy

Dec. 18, 2013 Rise Set
Actual Time 7:20 AM CST 5:47 PM CST
Civil Twilight 6:54 AM CST 6:12 PM CST
Nautical Twilight 6:25 AM CST 6:41 PM CST
Astronomical Twilight 5:57 AM CST 7:10 PM CST
Moon 7:12 PM CST (12/18) 8:07 AM CST (12/18)
Length of Visible Light 11h 17m
Length of Day
10h 26m
Full, 98% of the Moon is Illuminated
Dec 18
Full
Dec 25
Last Quarter
Jan 1
New
Jan 7
First Quarter
Jan 15
Full

Hourly Weather History & Observations

Time (CST) Temp. Dew Point Humidity Pressure Visibility Wind Dir Wind Speed Gust Speed Precip Events Conditions
12:15 AM 52.0 °F 49.1 °F 90% 30.28 in 10.0 mi East 4.6 mph - N/A   Clear
12:35 AM 51.4 °F 48.7 °F 90% 30.27 in 10.0 mi East 3.5 mph - N/A   Clear
12:55 AM 51.1 °F 48.9 °F 92% 30.27 in 10.0 mi East 4.6 mph - N/A   Clear
1:15 AM 50.9 °F 48.7 °F 92% 30.27 in 10.0 mi ESE 3.5 mph - N/A   Clear
1:35 AM 49.8 °F 47.8 °F 93% 30.26 in 7.0 mi Calm Calm - N/A   Clear
1:55 AM 48.4 °F 46.8 °F 94% 30.26 in 1.2 mi Calm Calm - N/A   Mist
2:15 AM 46.4 °F 45.0 °F 95% 30.25 in 0.8 mi Calm Calm - N/A   Mist
2:35 AM 47.8 °F 46.6 °F 95% 30.25 in 1.0 mi East 3.5 mph - N/A   Mist
2:55 AM 44.8 °F 43.3 °F 95% 30.25 in 0.8 mi Calm Calm - N/A   Mist
3:15 AM 41.2 °F 39.9 °F 95% 30.25 in 0.2 mi Calm Calm - N/A Fog Fog
3:35 AM 44.2 °F 43.0 °F 95% 30.25 in 0.2 mi Calm Calm - N/A Fog Fog
3:55 AM 44.4 °F 43.0 °F 95% 30.25 in 0.5 mi Calm Calm - N/A Fog Fog
4:15 AM 40.6 °F 39.6 °F 96% 30.25 in 0.2 mi Calm Calm - N/A Fog Fog
4:35 AM 41.2 °F 40.1 °F 96% 30.24 in 0.2 mi Calm Calm - N/A Fog Fog
4:55 AM 39.9 °F 38.7 °F 95% 30.24 in 0.2 mi Calm Calm - N/A Fog Fog
5:15 AM 39.9 °F 38.8 °F 96% 30.24 in 0.5 mi Calm Calm - N/A Fog Fog
5:35 AM 40.3 °F 39.2 °F 96% 30.23 in 0.2 mi Calm Calm - N/A Fog Fog
5:55 AM 39.2 °F 38.3 °F 97% 30.23 in 0.5 mi Calm Calm - N/A Fog Fog
6:15 AM 39.0 °F 38.1 °F 97% 30.23 in 0.2 mi Calm Calm - N/A Fog Fog
6:35 AM 38.7 °F 37.8 °F 97% 30.23 in 0.2 mi Calm Calm - N/A Fog Fog
6:55 AM 38.5 °F 37.6 °F 97% 30.24 in 0.2 mi Calm Calm - N/A Fog Fog
7:15 AM 43.5 °F 42.3 °F 95% 30.24 in 0.2 mi Calm Calm - N/A Fog Fog
7:35 AM 38.8 °F 37.9 °F 97% 30.24 in 0.2 mi Calm Calm - N/A Fog Fog
7:55 AM 40.8 °F 39.7 °F 96% 30.25 in 0.2 mi Calm Calm - N/A Fog Fog
8:15 AM 45.3 °F 44.2 °F 96% 30.25 in 0.2 mi Calm Calm - N/A Fog Fog
8:35 AM 50.5 °F 49.3 °F 95% 30.25 in 4.0 mi Calm Calm - N/A   Scattered Clouds
8:55 AM 54.1 °F 52.7 °F 95% 30.25 in 7.0 mi SSE 3.5 mph - N/A   Clear
9:15 AM 56.5 °F 55.2 °F 96% 30.26 in 10.0 mi SSE 6.9 mph - N/A   Scattered Clouds
9:35 AM 57.9 °F 55.0 °F 90% 30.26 in 10.0 mi SSE 5.8 mph - N/A   Scattered Clouds
9:55 AM 61.9 °F 52.7 °F 72% 30.26 in 10.0 mi SSE 3.5 mph - N/A   Scattered Clouds
10:15 AM 63.7 °F 53.6 °F 70% 30.26 in 10.0 mi SSE 6.9 mph - N/A   Clear
10:35 AM 66.6 °F 53.6 °F 63% 30.25 in 10.0 mi SSE 8.1 mph - N/A   Clear
10:55 AM 67.1 °F 53.2 °F 61% 30.25 in 10.0 mi South 5.8 mph - N/A   Clear
11:15 AM 68.2 °F 53.2 °F 59% 30.24 in 10.0 mi SSE 8.1 mph - N/A   Clear
11:35 AM 69.1 °F 53.4 °F 57% 30.23 in 10.0 mi Calm Calm - N/A   Clear
11:55 AM 70.7 °F 53.1 °F 54% 30.21 in 10.0 mi South 6.9 mph - N/A   Clear
12:15 PM 72.7 °F 52.7 °F 49% 30.20 in 10.0 mi South 5.8 mph - N/A   Clear
12:35 PM 72.7 °F 52.2 °F 48% 30.18 in 10.0 mi South 8.1 mph - N/A   Clear
12:55 PM 73.8 °F 51.6 °F 46% 30.17 in 10.0 mi South 8.1 mph - N/A   Scattered Clouds
1:15 PM 74.1 °F 51.8 °F 46% 30.15 in 10.0 mi South 9.2 mph - N/A   Scattered Clouds
1:35 PM 74.8 °F 50.0 °F 42% 30.14 in 10.0 mi SSE 8.1 mph 18.4 mph N/A   Clear
1:55 PM 73.4 °F 48.6 °F 41% 30.12 in 10.0 mi SSE 9.2 mph 17.3 mph N/A   Mostly Cloudy
2:15 PM 74.8 °F 47.1 °F 37% 30.11 in 10.0 mi SE 9.2 mph 18.4 mph N/A   Scattered Clouds
2:35 PM 74.7 °F 46.8 °F 37% 30.10 in 10.0 mi SE 10.4 mph 18.4 mph N/A   Scattered Clouds
2:55 PM 74.8 °F 46.6 °F 37% 30.09 in 10.0 mi SE 11.5 mph 18.4 mph N/A   Scattered Clouds
3:15 PM 75.4 °F 46.6 °F 36% 30.08 in 10.0 mi SSE 10.4 mph 21.9 mph N/A   Clear
3:35 PM 75.6 °F 46.4 °F 35% 30.08 in 10.0 mi SE 9.2 mph - N/A   Clear
3:55 PM 75.6 °F 45.9 °F 35% 30.07 in 10.0 mi SE 8.1 mph 19.6 mph N/A   Clear
4:15 PM 75.2 °F 47.3 °F 37% 30.07 in 10.0 mi SE 10.4 mph 17.3 mph N/A   Clear
4:35 PM 74.8 °F 47.5 °F 38% 30.07 in 10.0 mi SE 11.5 mph - N/A   Clear
4:55 PM 74.1 °F 47.8 °F 39% 30.07 in 10.0 mi SE 12.7 mph 17.3 mph N/A   Clear
5:15 PM 73.0 °F 48.9 °F 42% 30.07 in 10.0 mi SE 11.5 mph 16.1 mph N/A   Clear
5:35 PM 70.9 °F 49.3 °F 46% 30.07 in 10.0 mi SE 5.8 mph - N/A   Clear
5:55 PM 69.8 °F 49.5 °F 48% 30.07 in 10.0 mi SE 5.8 mph - N/A   Scattered Clouds
6:15 PM 68.9 °F 50.0 °F 51% 30.07 in 10.0 mi SE 5.8 mph - N/A   Mostly Cloudy
6:35 PM 68.0 °F 50.5 °F 54% 30.07 in 10.0 mi ESE 8.1 mph - N/A   Scattered Clouds
6:55 PM 67.3 °F 50.9 °F 56% 30.07 in 10.0 mi ESE 6.9 mph - N/A   Scattered Clouds
7:15 PM 65.5 °F 51.1 °F 60% 30.07 in 10.0 mi ESE 5.8 mph - N/A   Scattered Clouds
7:35 PM 64.8 °F 51.4 °F 62% 30.07 in 10.0 mi SE 6.9 mph - N/A   Scattered Clouds
7:55 PM 65.1 °F 51.4 °F 61% 30.07 in 10.0 mi SE 9.2 mph - N/A   Clear
8:15 PM 65.8 °F 52.3 °F 62% 30.07 in 10.0 mi SE 9.2 mph - N/A   Clear
8:35 PM 65.8 °F 53.2 °F 64% 30.08 in 10.0 mi SSE 10.4 mph 18.4 mph N/A   Clear
8:55 PM 65.5 °F 53.6 °F 65% 30.08 in 10.0 mi SE 10.4 mph 17.3 mph N/A   Clear
9:15 PM 65.3 °F 54.0 °F 67% 30.08 in 10.0 mi SE 11.5 mph 18.4 mph N/A   Clear
9:35 PM 64.8 °F 54.5 °F 69% 30.07 in 10.0 mi SE 10.4 mph 19.6 mph N/A   Clear
9:55 PM 64.4 °F 54.5 °F 70% 30.07 in 10.0 mi SSE 10.4 mph - N/A   Clear
10:15 PM 63.9 °F 54.7 °F 72% 30.07 in 10.0 mi SE 10.4 mph 16.1 mph N/A   Clear
10:35 PM 63.5 °F 54.9 °F 73% 30.07 in 10.0 mi SE 9.2 mph 16.1 mph N/A   Clear
10:55 PM 63.5 °F 55.0 °F 74% 30.06 in 10.0 mi SE 9.2 mph - N/A   Clear
11:15 PM 63.0 °F 55.2 °F 76% 30.05 in 10.0 mi SE 8.1 mph 17.3 mph N/A   Clear
11:35 PM 62.8 °F 55.4 °F 77% 30.04 in 10.0 mi SE 10.4 mph 16.1 mph N/A   Clear
11:55 PM 62.8 °F 55.6 °F 77% 30.03 in 10.0 mi SE 10.4 mph 16.1 mph N/A   Clear